Weather History for Breckenridge, TX

Change the Weather History Date:

Thursday, December 19, 2013

  Actual Average (KABI) Record (KABI)
Temperature  
Mean Temperature 64 °F 44 °F  
Max Temperature 73 °F 56 °F 80 °F (1978)
Min Temperature 55 °F 33 °F 5 °F (1924)
Degree Days  
Heating Degree Days 1 21  
Month to date heating degree days 360  
Since 1 July heating degree days 793  
Cooling Degree Days 0 0  
Month to date cooling degree days 0  
Year to date cooling degree days 2408  
Growing Degree Days 14 (Base 50)    
Moisture  
Dew Point 50 °F    
Average Humidity 66    
Maximum Humidity 83    
Minimum Humidity 44    
Precipitation  
Precipitation 0.00 in 0.04 in 1.70 in (1991)
Month to date precipitation 0.77  
Year to date precipitation 24.36  
Sea Level Pressure  
Sea Level Pressure 29.80 in    
Wind  
Wind Speed 17 mph (SSW)    
Max Wind Speed 26 mph    
Max Gust Speed 36 mph    
Visibility 10 miles    
Events      
T = Trace of Precipitation, MM = Missing Value Source: NWS Daily Summary

Daily Weather History Graph

Daily Weather History Graph

Search for Another Location

Airport:

Trip Planner

Search our weather history database for the weather conditions in past years. The results will help you decide how hot, cold, wet, or windy it might be!

Date:

Astronomy

Dec. 19, 2013 Rise Set
Actual Time 7:32 AM CST 5:32 PM CST
Civil Twilight 7:05 AM CST 6:00 PM CST
Nautical Twilight 6:34 AM CST 6:30 PM CST
Astronomical Twilight 6:04 AM CST 7:01 PM CST
Moon 7:53 PM CST (12/19) 8:58 AM CST (12/19)
Length of Visible Light 10h 54m
Length of Day
9h 59m
Waning Gibbous, 95% of the Moon is Illuminated
Dec 19
Waning Gibbous
Dec 25
Last Quarter
Jan 1
New
Jan 7
First Quarter
Jan 15
Full

Hourly Weather History & Observations

Time (CST) Temp. Dew Point Humidity Pressure Visibility Wind Dir Wind Speed Gust Speed Precip Events Conditions
12:15 AM 57.4 °F 45.5 °F 65% 29.93 in 10.0 mi South 16.1 mph 24.2 mph N/A   Clear
12:35 AM 56.8 °F 45.5 °F 66% 29.92 in 10.0 mi South 18.4 mph 24.2 mph N/A   Clear
12:55 AM 56.8 °F 45.7 °F 66% 29.91 in 10.0 mi South 19.6 mph 27.6 mph N/A   Clear
1:15 AM 56.3 °F 45.7 °F 68% 29.91 in 10.0 mi SSW 17.3 mph 23.0 mph N/A   Clear
1:35 AM 56.5 °F 45.9 °F 68% 29.91 in 10.0 mi South 18.4 mph 23.0 mph N/A   Clear
1:55 AM 56.8 °F 46.4 °F 68% 29.90 in 10.0 mi South 21.9 mph 27.6 mph N/A   Clear
2:15 AM 56.1 °F 46.4 °F 70% 29.90 in 10.0 mi South 15.0 mph 21.9 mph N/A   Clear
2:35 AM 55.8 °F 46.6 °F 71% 29.90 in 10.0 mi South 17.3 mph 25.3 mph N/A   Clear
2:55 AM 55.8 °F 47.3 °F 73% 29.89 in 10.0 mi South 17.3 mph 25.3 mph N/A   Clear
3:15 AM 55.4 °F 47.3 °F 74% 29.88 in 10.0 mi South 18.4 mph 26.5 mph N/A   Clear
3:35 AM 55.4 °F 47.5 °F 75% 29.88 in 10.0 mi South 18.4 mph 24.2 mph N/A   Clear
3:55 AM 55.4 °F 47.8 °F 76% 29.87 in 10.0 mi South 18.4 mph 24.2 mph N/A   Clear
4:15 AM 55.4 °F 48.4 °F 77% 29.87 in 10.0 mi South 18.4 mph 24.2 mph N/A   Clear
4:35 AM 55.6 °F 48.9 °F 78% 29.86 in 10.0 mi South 13.8 mph 21.9 mph N/A   Clear
4:55 AM 55.6 °F 49.1 °F 79% 29.85 in 10.0 mi South 15.0 mph 21.9 mph N/A   Clear
5:15 AM 55.4 °F 49.3 °F 80% 29.84 in 10.0 mi South 15.0 mph 21.9 mph N/A   Clear
5:35 AM 55.8 °F 49.6 °F 80% 29.84 in 10.0 mi South 15.0 mph 20.7 mph N/A   Clear
5:55 AM 55.6 °F 49.6 °F 80% 29.83 in 10.0 mi South 15.0 mph 20.7 mph N/A   Clear
6:15 AM 55.8 °F 50.0 °F 81% 29.83 in 10.0 mi South 13.8 mph 19.6 mph N/A   Clear
6:35 AM 55.6 °F 50.0 °F 81% 29.83 in 10.0 mi South 13.8 mph - N/A   Clear
6:55 AM 55.9 °F 50.4 °F 82% 29.83 in 10.0 mi South 13.8 mph 19.6 mph N/A   Scattered Clouds
7:15 AM 55.6 °F 50.4 °F 83% 29.84 in 10.0 mi South 13.8 mph 19.6 mph N/A   Clear
7:35 AM 56.3 °F 50.7 °F 82% 29.84 in 10.0 mi South 13.8 mph - N/A   Clear
7:55 AM 56.7 °F 50.9 °F 81% 29.84 in 10.0 mi North - - N/A   Clear
8:15 AM 57.2 °F 51.1 °F 80% 29.84 in 10.0 mi South 9.2 mph 18.4 mph N/A   Clear
8:35 AM 58.3 °F 51.4 °F 78% 29.83 in 10.0 mi South 12.7 mph 20.7 mph N/A   Clear
8:55 AM 59.5 °F 51.6 °F 75% 29.84 in 10.0 mi South 15.0 mph 21.9 mph N/A   Clear
9:15 AM 60.6 °F 51.8 °F 73% 29.84 in 10.0 mi SSW 16.1 mph 23.0 mph N/A   Clear
9:35 AM 62.1 °F 52.0 °F 70% 29.83 in 10.0 mi SSW 16.1 mph 25.3 mph N/A   Clear
9:55 AM 63.9 °F 52.0 °F 65% 29.84 in 10.0 mi SSW 19.6 mph 26.5 mph N/A   Clear
10:15 AM 65.1 °F 51.8 °F 62% 29.84 in 10.0 mi SSW 23.0 mph 31.1 mph N/A   Scattered Clouds
10:35 AM 66.2 °F 51.4 °F 59% 29.84 in 10.0 mi SSW 18.4 mph 32.2 mph N/A   Clear
10:55 AM 66.9 °F 51.3 °F 57% 29.83 in 10.0 mi SSW 23.0 mph 35.7 mph N/A   Clear
11:15 AM 68.0 °F 51.1 °F 55% 29.83 in 7.0 mi SSW 26.5 mph 31.1 mph N/A   Clear
11:35 AM 69.8 °F 51.1 °F 51% 29.82 in 10.0 mi SSW 24.2 mph 28.8 mph N/A   Clear
11:55 AM 70.0 °F 50.9 °F 51% 29.81 in 7.0 mi SSW 23.0 mph 31.1 mph N/A   Clear
12:15 PM 70.7 °F 50.4 °F 48% 29.79 in 10.0 mi SSW 23.0 mph 29.9 mph N/A   Clear
12:35 PM 70.5 °F 50.0 °F 48% 29.78 in 10.0 mi SSW 21.9 mph 27.6 mph N/A   Clear
12:55 PM 72.0 °F 50.0 °F 46% 29.76 in 10.0 mi SSW 21.9 mph 28.8 mph N/A   Clear
1:15 PM 71.8 °F 50.0 °F 46% 29.75 in 10.0 mi SSW 20.7 mph 26.5 mph N/A   Clear
1:35 PM 71.6 °F 50.0 °F 46% 29.75 in 10.0 mi SSW 18.4 mph 25.3 mph N/A   Clear
1:55 PM 72.3 °F 50.2 °F 46% 29.74 in 10.0 mi SSW 18.4 mph 24.2 mph N/A   Clear
2:15 PM 72.5 °F 50.0 °F 45% 29.74 in 10.0 mi SSW 19.6 mph 26.5 mph N/A   Clear
2:35 PM 72.5 °F 50.2 °F 45% 29.73 in 10.0 mi SSW 18.4 mph 24.2 mph N/A   Clear
2:55 PM 72.9 °F 50.0 °F 44% 29.73 in 10.0 mi SSW 17.3 mph - N/A   Clear
3:15 PM 73.0 °F 49.6 °F 44% 29.72 in 10.0 mi SSW 18.4 mph - N/A   Clear
3:35 PM 72.5 °F 49.6 °F 44% 29.71 in 10.0 mi SSW 20.7 mph 26.5 mph N/A   Clear
3:55 PM 72.5 °F 50.2 °F 45% 29.72 in 10.0 mi SSW 15.0 mph 24.2 mph N/A   Clear
4:15 PM 72.3 °F 50.5 °F 46% 29.71 in 10.0 mi SSW 12.7 mph 19.6 mph N/A   Clear
4:35 PM 71.4 °F 50.7 °F 48% 29.71 in 10.0 mi South 15.0 mph 23.0 mph N/A   Clear
4:55 PM 70.9 °F 51.4 °F 50% 29.71 in 10.0 mi South 15.0 mph 25.3 mph N/A   Clear
5:15 PM 69.3 °F 51.8 °F 54% 29.72 in 10.0 mi South 12.7 mph 24.2 mph N/A   Clear
5:35 PM 67.8 °F 51.8 °F 56% 29.71 in 10.0 mi South 17.3 mph 24.2 mph N/A   Clear
5:55 PM 66.2 °F 51.4 °F 59% 29.72 in 10.0 mi South 15.0 mph 20.7 mph N/A   Clear
6:15 PM 65.5 °F 52.0 °F 62% 29.73 in 10.0 mi South 15.0 mph 20.7 mph N/A   Clear
6:35 PM 64.8 °F 52.2 °F 64% 29.73 in 10.0 mi South 17.3 mph 21.9 mph N/A   Clear
6:55 PM 64.6 °F 52.2 °F 64% 29.73 in 10.0 mi South 18.4 mph 24.2 mph N/A   Clear
7:15 PM 64.2 °F 52.2 °F 65% 29.73 in 10.0 mi South 17.3 mph 24.2 mph N/A   Clear
7:35 PM 63.7 °F 52.3 °F 67% 29.74 in 10.0 mi South 17.3 mph 25.3 mph N/A   Clear
7:55 PM 63.0 °F 52.5 °F 69% 29.74 in 10.0 mi South 15.0 mph 21.9 mph N/A   Clear
8:15 PM 62.2 °F 52.3 °F 70% 29.74 in 10.0 mi South 16.1 mph 24.2 mph N/A   Clear
8:35 PM 62.4 °F 52.2 °F 69% 29.74 in 10.0 mi South 17.3 mph 25.3 mph N/A   Clear
8:55 PM 61.9 °F 52.3 °F 71% 29.74 in 10.0 mi South 17.3 mph 23.0 mph N/A   Clear
9:15 PM 61.7 °F 52.7 °F 72% 29.74 in 10.0 mi South 16.1 mph 25.3 mph N/A   Clear
9:35 PM 61.2 °F 52.7 °F 74% 29.74 in 10.0 mi South 15.0 mph - N/A   Clear
9:55 PM 61.0 °F 52.7 °F 74% 29.74 in 10.0 mi South 16.1 mph 20.7 mph N/A   Clear
10:15 PM 61.0 °F 52.3 °F 73% 29.74 in 10.0 mi South 15.0 mph 23.0 mph N/A   Clear
10:35 PM 60.6 °F 52.3 °F 74% 29.74 in 10.0 mi South 12.7 mph - N/A   Clear
10:55 PM 60.4 °F 52.7 °F 76% 29.74 in 10.0 mi SSW 12.7 mph - N/A   Clear
11:15 PM 60.3 °F 52.7 °F 76% 29.74 in 10.0 mi South 15.0 mph - N/A   Clear
11:35 PM 59.5 °F 52.7 °F 78% 29.74 in 10.0 mi SSW 12.7 mph 18.4 mph N/A   Clear
11:55 PM 59.2 °F 52.7 °F 79% 29.73 in 10.0 mi South 10.4 mph - N/A   Clear